Location: Henham
(51.9333°N, 0.2500°E)
Time: 23:42:59
(UTC+00:00)

STARLINK-72 - Pass Details

Date: 23 October 2019
Orbit: 548 x 551 km, 53.0° (Epoch: 21 November)

Event Time Altitude Azimuth Distance (km) Brightness Sun altitude
Rises 18:48:16 0° 284° (WNW) 2,721 8.8 -19.0°
Reaches altitude 10° 18:50:30 10° 284° (WNW) 1,826 7.5 -19.4°
Maximum altitude 18:54:39 86° 195° (SSW) 557 3.5 -20.0°
Enters shadow 18:55:26 58° 112° (ESE) 644 3.6 -20.1°
